Darstellungsparameter: Aktuell verwendete Einstellungen:
Skalierung der Graphiken ... ?
xyx+y,   Skalierungsfaktor:      Skalierung: Modus: x, Faktor: 1
Darstellungszeitraum ... ?
Vom - - bis: - -   Zeitraum: 31.08.2021 - 30.11.2021
Min/Max/Avg-Anzeige ... ?
Zeige MMA aktuell
Zeige MMA Monat
Zeige MMA alles
Zeige --A aktuell
Zeige --A Monat
Zeige --A alles
Keine MMA-Anzeige
MMA:
Average (ber die Originaldaten)
MMA-Basis: 31.08.2021 - 30.11.2021
Quicknavigation für Darstellung... ?
Tage:      1T, 2T, 3T, 5T -1T -2T -3T -5T +1T +2T +3T +5T
Wochen: 1W, 2W, 3W -1W -2W -3W +1W +2W +3W
Monate: 1M, 3M, 6M -1M -3M -6M +1M +3M +6M
Jahre:    1J, 3J, 5J, 10J -1J -3J -5J -10J +1J +3J +5J +10J
Nutze für die Darstellung ... ?
Originaldaten oder ...
Mittelwerte Minima Maxima auf...
Stundenbasis Tagesbasis Wochenbasis
Monatsbasis Jahresbasis      Datenbasis: Mittelwerte auf Tagesbasis
Darstellen als:
Statistik (Auto) Statistik J:M      Darstellung:
Zur Graphik,    zurück zur Übersicht aller Sensoren.
 
Tabellarische Datenbersicht: ?
 
Sensor: Nr:Datum:Temp:Abs-Feuchte:Windchill:Wind:
Aussen-T/F 1 31-08-2021 00:00:00 15.90451 C 11.81 g/m*3 15.9 C 4.22708 km/h
2 01-09-2021 00:00:00 15.32292 C 11.29 g/m*3 15.32 C 2.77882 km/h
3 02-09-2021 00:00:00 15.57326 C 11.45 g/m*3 15.57 C 2.15972 km/h
4 03-09-2021 00:00:00 15.62043 C 11.47 g/m*3 15.62 C 1.29574 km/h
5 04-09-2021 00:00:00 16.59444 C 12.1 g/m*3 16.59 C 1.47535 km/h
6 05-09-2021 00:00:00 16.91007 C 12.65 g/m*3 16.91 C 0.80069 km/h
7 06-09-2021 00:00:00 17.19123 C 12.79 g/m*3 17.19 C 1.01754 km/h
8 07-09-2021 00:00:00 17.42293 C 12.77 g/m*3 17.42 C 0.62556 km/h
9 08-09-2021 00:00:00 17.4852 C 12.38 g/m*3 17.49 C 1.72347 km/h
10 09-09-2021 00:00:00 18.16224 C 13.65 g/m*3 18.16 C 2.72517 km/h
11 10-09-2021 00:00:00 20.31875 C 15.55 g/m*3 20.32 C 3.35139 km/h
12 11-09-2021 00:00:00 18.95243 C 14.07 g/m*3 18.95 C 1.82674 km/h
13 12-09-2021 00:00:00 16.74271 C 11.85 g/m*3 16.74 C 2.36979 km/h
14 13-09-2021 00:00:00 14.9375 C 11.26 g/m*3 14.94 C 0.90069 km/h
15 14-09-2021 00:00:00 16.50764 C 13.03 g/m*3 16.51 C 0.66111 km/h
16 15-09-2021 00:00:00 19.16389 C 15.39 g/m*3 19.16 C 2.25938 km/h
17 16-09-2021 00:00:00 16.22812 C 12.2 g/m*3 16.23 C 3.74896 km/h
18 17-09-2021 00:00:00 14.5809 C 11.23 g/m*3 14.58 C 0.69549 km/h
19 18-09-2021 00:00:00 14.56979 C 11.26 g/m*3 14.57 C 0.18889 km/h
20 19-09-2021 00:00:00 13.99062 C 10.48 g/m*3 13.99 C 2.46319 km/h
21 20-09-2021 00:00:00 13.42153 C 9.74 g/m*3 13.42 C 2.05347 km/h
22 21-09-2021 00:00:00 12.21701 C 8.63 g/m*3 12.22 C 1.90556 km/h
23 22-09-2021 00:00:00 11.0684 C 9 g/m*3 11.07 C 0.24444 km/h
24 23-09-2021 00:00:00 13.46458 C 9.81 g/m*3 13.46 C 3.08611 km/h
25 24-09-2021 00:00:00 15.75139 C 11.46 g/m*3 15.75 C 5.2 km/h
Sensor: Nr:Datum:Temp:Abs-Feuchte:Windchill:Wind:
Aussen-T/F 26 25-09-2021 00:00:00 14.55035 C 11.21 g/m*3 14.55 C 0.02778 km/h
27 26-09-2021 00:00:00 16.16667 C 12.73 g/m*3 16.17 C 1.00764 km/h
28 27-09-2021 00:00:00 16.01493 C 12.56 g/m*3 16.01 C 1.86146 km/h
29 28-09-2021 00:00:00 12.70486 C 10.13 g/m*3 12.7 C 2.32951 km/h
30 29-09-2021 00:00:00 11.46528 C 9.04 g/m*3 11.47 C 5.54514 km/h
31 30-09-2021 00:00:00 10.65104 C 8.33 g/m*3 10.24 C 5.93819 km/h
32 01-10-2021 00:00:00 11.02917 C 8.66 g/m*3 11.03 C 2.28993 km/h
33 02-10-2021 00:00:00 15.01458 C 11.2 g/m*3 15.01 C 2.77188 km/h
34 03-10-2021 00:00:00 18.50799 C 12.03 g/m*3 18.51 C 7.05417 km/h
35 04-10-2021 00:00:00 13.61597 C 9.94 g/m*3 13.62 C 2.47778 km/h
36 05-10-2021 00:00:00 12.23056 C 9.63 g/m*3 12.23 C 2.73542 km/h
37 06-10-2021 00:00:00 11.90382 C 9.14 g/m*3 11.9 C 9.46736 km/h
38 07-10-2021 00:00:00 12.24826 C 9.75 g/m*3 12.25 C 2.25278 km/h
39 08-10-2021 00:00:00 10.55104 C 8.99 g/m*3 10.55 C 1.36563 km/h
40 09-10-2021 00:00:00 9.57049 C 8.41 g/m*3 9.57 C 1.41181 km/h
41 10-10-2021 00:00:00 7.3184 C 7.33 g/m*3 7.32 C 1.06736 km/h
42 11-10-2021 00:00:00 8.84479 C 7.95 g/m*3 8.84 C 2.35417 km/h
43 12-10-2021 00:00:00 10.04271 C 9 g/m*3 10.04 C 2.00382 km/h
44 13-10-2021 00:00:00 8.32569 C 7.99 g/m*3 8.33 C 2.06319 km/h
45 14-10-2021 00:00:00 10.88194 C 9.12 g/m*3 10.88 C 4.49896 km/h
46 15-10-2021 00:00:00 9.27708 C 8.37 g/m*3 9.28 C 4.56597 km/h
47 16-10-2021 00:00:00 7.72118 C 7.86 g/m*3 7.72 C 1.28368 km/h
48 17-10-2021 00:00:00 9.33681 C 8.28 g/m*3 9.34 C 0.84132 km/h
49 18-10-2021 00:00:00 7.59896 C 7.52 g/m*3 7.6 C 1.41563 km/h
50 19-10-2021 00:00:00 11.75903 C 10.07 g/m*3 11.76 C 2.4184 km/h
Sensor: Nr:Datum:Temp:Abs-Feuchte:Windchill:Wind:
Aussen-T/F 51 20-10-2021 00:00:00 13.41528 C 10.99 g/m*3 13.42 C 3.45556 km/h
52 21-10-2021 00:00:00 11.72882 C 8.86 g/m*3 11.73 C 15.61458 km/h
53 22-10-2021 00:00:00 7.64946 C 6.94 g/m*3 5.92 C 9.49713 km/h
54 23-10-2021 00:00:00 8.12431 C 7.68 g/m*3 8.12 C 0.82778 km/h
55 24-10-2021 00:00:00 5.46007 C 6.56 g/m*3 5.46 C 1.0684 km/h
56 25-10-2021 00:00:00 6.09063 C 7.01 g/m*3 6.09 C 1.26597 km/h
57 26-10-2021 00:00:00 11.92049 C 9.22 g/m*3 11.92 C 8.95313 km/h
58 27-10-2021 00:00:00 12.22986 C 9.65 g/m*3 12.23 C 6.11736 km/h
59 28-10-2021 00:00:00 8.55139 C 8.09 g/m*3 8.55 C 2.53611 km/h
60 29-10-2021 00:00:00 8.21389 C 7.83 g/m*3 8.21 C 1.06354 km/h
61 30-10-2021 00:00:00 9.46285 C 8.52 g/m*3 9.46 C 1.775 km/h
62 31-10-2021 00:00:00 13.42361 C 10.8 g/m*3 13.42 C 2.30347 km/h
63 01-11-2021 00:00:00 9.80764 C 8.42 g/m*3 9.81 C 4.00313 km/h
64 02-11-2021 00:00:00 7.40556 C 7.56 g/m*3 7.41 C 1.99201 km/h
65 03-11-2021 00:00:00 7.15833 C 7.57 g/m*3 7.16 C 0.95382 km/h
66 04-11-2021 00:00:00 7.47153 C 7.58 g/m*3 7.47 C 4.87188 km/h
67 05-11-2021 00:00:00 7.72639 C 7.69 g/m*3 7.73 C 1.42222 km/h
68 06-11-2021 00:00:00 7.21007 C 7.23 g/m*3 6.25 C 6.05069 km/h
69 07-11-2021 00:00:00 8.28576 C 7.31 g/m*3 6.01 C 13.46563 km/h
70 08-11-2021 00:00:00 7.43125 C 7.36 g/m*3 7.43 C 1.85625 km/h
71 09-11-2021 00:00:00 4.94965 C 6.45 g/m*3 4.95 C 0.69444 km/h
72 10-11-2021 00:00:00 1.52188 C 5.19 g/m*3 1.52 C 0.42778 km/h
73 11-11-2021 00:00:00 2.06285 C 5.42 g/m*3 2.06 C 1.17222 km/h
74 12-11-2021 00:00:00 2.05104 C 5.4 g/m*3 2.05 C 1.7066 km/h
75 13-11-2021 00:00:00 6.30139 C 7.18 g/m*3 6.3 C 0.48958 km/h
Sensor: Nr:Datum:Temp:Abs-Feuchte:Windchill:Wind:
Aussen-T/F 76 14-11-2021 00:00:00 8.13194 C 8.01 g/m*3 8.13 C 1.26007 km/h
77 15-11-2021 00:00:00 7.29306 C 7.32 g/m*3 7.29 C 2.57569 km/h
78 16-11-2021 00:00:00 5.99063 C 6.95 g/m*3 5.99 C 0.04444 km/h
79 17-11-2021 00:00:00 6.40104 C 7.01 g/m*3 5.59 C 5.21736 km/h
80 18-11-2021 00:00:00 5.99167 C 6.87 g/m*3 5.99 C 3.74965 km/h
81 19-11-2021 00:00:00 9.17708 C 8.26 g/m*3 8.12 C 7.61806 km/h
82 20-11-2021 00:00:00 8.13021 C 7.62 g/m*3 8.13 C 1.53924 km/h
83 21-11-2021 00:00:00 6.92187 C 7.32 g/m*3 6.92 C 3.75486 km/h
84 22-11-2021 00:00:00 4.30625 C 5.99 g/m*3 4.31 C 2.13403 km/h
85 23-11-2021 00:00:00 0.85625 C 4.92 g/m*3 0.86 C 0 km/h
86 24-11-2021 00:00:00 3.7691 C 5.8 g/m*3 3.77 C 0.45069 km/h
87 25-11-2021 00:00:00 3.23958 C 5.56 g/m*3 3.24 C 0.13889 km/h
88 26-11-2021 00:00:00 3.97083 C 5.7 g/m*3 2.84 C 5.17951 km/h
89 27-11-2021 00:00:00 2.5934 C 5.29 g/m*3 2.59 C 3.8125 km/h
90 28-11-2021 00:00:00 2.37083 C 5.45 g/m*3 2.37 C 0.7066 km/h
91 29-11-2021 00:00:00 2.425 C 5.39 g/m*3 0.88 C 5.68056 km/h
92 30-11-2021 00:00:00 5.43368 C 6.4 g/m*3 1.45 C 21.45313 km/h

Maximal/Minimal-Werte vom 31.08.2021 - 30.11.2021

Sensor Min Max Avg
Temp
(Aussen-T/F)
-2.3 °C
23-11-2021  04:10:00
28.1 °C
08-09-2021  17:10:00
10.5 °C
Abs-Feuchte
(Aussen-T/F)
4.92 g/m*3
23-11-2021  00:00:00
15.55 g/m*3
10-09-2021  00:00:00
8.98 g/m*3
Windchill
(Aussen-T/F)
0.86 C
23-11-2021  00:00:00
20.32 C
10-09-2021  00:00:00
10.26 C

Die Daten stammen von einer Davis Vantage Pro 2 Wetter-Station und werden unter Linux mit der Software wview2wettercgi und aufbereitet. Alle Angaben erfolgen ohne Gewähr für ihre Vollständigkeit oder Richtigkeit.
Kontakt: Rainer Krienke krienke@uni-koblenz.de . Meine Webseiten an der Uni Koblenz oder privat.
Version: $Revision: 0.78 $